JST613 YSSY-YMAV

Flight info

Callsign JST613
Flight time 1h 9m
Altitude 38000
Route WOL H65 LEECE Q29 ML W15 AV
Aircraft A320/M-SDE3FGHIRWY/LB1

Departure

Time 2026-05-05 11:42
Airport Sydney Kingsford Smith International Airport (YSSY)

Arrival

Time 2026-05-05 12:51
Airport Melbourne Avalon International Airport (YMAV)
Time Latitude Longitude Altitude Speed Heading
2026-05-05 11:03 -33.93411 151.17714 30 ft 0 kts 99°
2026-05-05 11:36 -33.93407 151.17685 30 ft 4 kts 99°
2026-05-05 11:36 -33.93403 151.17653 30 ft 4 kts 98°
2026-05-05 11:37 -33.93400 151.17621 30 ft 4 kts 84°
2026-05-05 11:37 -33.93406 151.17597 30 ft 4 kts 19°
2026-05-05 11:37 -33.93410 151.17595 30 ft 0 kts
2026-05-05 11:40 -33.93409 151.17596 30 ft 1 kts
2026-05-05 11:40 -33.93385 151.17588 30 ft 7 kts 330°
2026-05-05 11:40 -33.93374 151.17519 30 ft 10 kts 261°
2026-05-05 11:41 -33.93392 151.17423 29 ft 13 kts 257°
2026-05-05 11:41 -33.93430 151.17312 27 ft 16 kts 212°
2026-05-05 11:41 -33.93556 151.17319 27 ft 25 kts 168°
2026-05-05 11:41 -33.93962 151.17424 26 ft 93 kts 167°
2026-05-05 11:42 -33.94771 151.17635 29 ft 144 kts 168°
2026-05-05 11:42 -33.95851 151.17901 303 ft 161 kts 167°
2026-05-05 11:42 -33.96952 151.18042 974 ft 158 kts 184°
2026-05-05 11:42 -33.98053 151.17858 1574 ft 162 kts 187°
2026-05-05 11:43 -33.99215 151.17731 1988 ft 176 kts 183°
2026-05-05 11:43 -34.00499 151.17664 2359 ft 193 kts 181°
2026-05-05 11:43 -34.01936 151.17620 2678 ft 219 kts 181°
2026-05-05 11:43 -34.03506 151.17820 3084 ft 242 kts 166°
2026-05-05 11:44 -34.05174 151.18340 3846 ft 252 kts 165°
2026-05-05 11:44 -34.06882 151.18899 4743 ft 256 kts 165°
2026-05-05 11:44 -34.08615 151.19477 5650 ft 260 kts 166°
2026-05-05 11:44 -34.10379 151.20068 6479 ft 267 kts 166°
2026-05-05 11:45 -34.12192 151.20675 7257 ft 273 kts 166°
2026-05-05 11:45 -34.14037 151.21295 8075 ft 277 kts 166°
2026-05-05 11:45 -34.15909 151.21917 8892 ft 281 kts 166°
2026-05-05 11:45 -34.17844 151.22338 9679 ft 285 kts 180°
2026-05-05 11:46 -34.19780 151.22036 10422 ft 287 kts 198°
2026-05-05 11:46 -34.21622 151.20970 10792 ft 304 kts 218°
2026-05-05 11:46 -34.23129 151.19142 11377 ft 310 kts 231°
2026-05-05 11:46 -34.24530 151.17134 12072 ft 315 kts 230°
2026-05-05 11:47 -34.25959 151.15116 12796 ft 317 kts 230°
2026-05-05 11:47 -34.27409 151.13083 13528 ft 321 kts 230°
2026-05-05 11:47 -34.28873 151.11030 14217 ft 324 kts 230°
2026-05-05 11:47 -34.30328 151.08985 14847 ft 327 kts 230°
2026-05-05 11:48 -34.33319 151.04777 16115 ft 332 kts 231°
2026-05-05 11:48 -34.34829 151.02644 16750 ft 335 kts 231°
2026-05-05 11:48 -34.36351 151.00491 17390 ft 338 kts 231°
2026-05-05 11:49 -34.37984 150.98423 17935 ft 346 kts 224°
2026-05-05 11:49 -34.39808 150.96417 18070 ft 363 kts 224°
2026-05-05 11:49 -34.41733 150.94334 18209 ft 380 kts 223°
2026-05-05 11:49 -34.43743 150.92175 18543 ft 390 kts 223°
2026-05-05 11:50 -34.45757 150.90012 19019 ft 395 kts 224°
2026-05-05 11:50 -34.47819 150.87791 19549 ft 398 kts 224°
2026-05-05 11:50 -34.49896 150.85543 20103 ft 401 kts 224°
2026-05-05 11:50 -34.51979 150.83274 20647 ft 404 kts 224°
2026-05-05 11:51 -34.54075 150.80983 21135 ft 407 kts 224°
2026-05-05 11:51 -34.56073 150.78557 21613 ft 408 kts 232°
2026-05-05 11:51 -34.57786 150.75808 22075 ft 409 kts 236°
2026-05-05 11:51 -34.59446 150.73049 22532 ft 411 kts 236°
2026-05-05 11:52 -34.61138 150.70244 22985 ft 414 kts 236°
2026-05-05 11:52 -34.62846 150.67414 23416 ft 416 kts 236°
2026-05-05 11:52 -34.64564 150.64570 23836 ft 419 kts 236°
2026-05-05 11:52 -34.66292 150.61707 24194 ft 421 kts 236°
2026-05-05 11:53 -34.68026 150.58832 24554 ft 423 kts 236°
2026-05-05 11:53 -34.69765 150.55942 24888 ft 425 kts 236°
2026-05-05 11:53 -34.71513 150.53029 25229 ft 427 kts 236°
2026-05-05 11:53 -34.73242 150.50143 25576 ft 429 kts 236°
2026-05-05 11:54 -34.75001 150.47201 25912 ft 431 kts 236°
2026-05-05 11:54 -34.76764 150.44248 26252 ft 433 kts 236°
2026-05-05 11:54 -34.78537 150.41276 26584 ft 435 kts 236°
2026-05-05 11:54 -34.80320 150.38293 26923 ft 437 kts 236°
2026-05-05 11:55 -34.82112 150.35301 27259 ft 439 kts 236°
2026-05-05 11:55 -34.83914 150.32289 27580 ft 440 kts 236°
2026-05-05 11:55 -34.85716 150.29272 27941 ft 441 kts 236°
2026-05-05 11:55 -34.87496 150.26290 28396 ft 440 kts 237°
2026-05-05 11:56 -34.89289 150.23283 28862 ft 438 kts 237°
2026-05-05 11:56 -34.91076 150.20280 29336 ft 437 kts 237°
2026-05-05 11:56 -34.92857 150.17277 29807 ft 436 kts 237°
2026-05-05 11:56 -34.94630 150.14287 30265 ft 435 kts 237°
2026-05-05 11:57 -34.96401 150.11299 30676 ft 435 kts 237°
2026-05-05 11:57 -34.98169 150.08316 31114 ft 433 kts 237°
2026-05-05 11:57 -34.99929 150.05345 31545 ft 431 kts 237°
2026-05-05 11:57 -35.01662 150.02418 31955 ft 430 kts 237°
2026-05-05 11:58 -35.03436 149.99423 32373 ft 429 kts 237°
2026-05-05 11:58 -35.05159 149.96508 32781 ft 428 kts 237°
2026-05-05 11:58 -35.06895 149.93565 33194 ft 428 kts 237°
2026-05-05 11:58 -35.08632 149.90619 33611 ft 427 kts 238°
2026-05-05 11:59 -35.10365 149.87677 34030 ft 426 kts 238°
2026-05-05 11:59 -35.12090 149.84744 34417 ft 425 kts 237°
2026-05-05 11:59 -35.13813 149.81809 34763 ft 425 kts 238°
2026-05-05 11:59 -35.15534 149.78878 35091 ft 424 kts 238°
2026-05-05 12:00 -35.17254 149.75953 35422 ft 423 kts 238°
2026-05-05 12:00 -35.18948 149.73071 35732 ft 423 kts 238°
2026-05-05 12:00 -35.20660 149.70153 36054 ft 422 kts 238°
2026-05-05 12:00 -35.22369 149.67231 36248 ft 423 kts 238°
2026-05-05 12:01 -35.25787 149.61384 36281 ft 422 kts 238°
2026-05-05 12:01 -35.29197 149.55543 36280 ft 422 kts 238°
2026-05-05 12:02 -35.32586 149.49738 36279 ft 422 kts 238°
2026-05-05 12:02 -35.35995 149.43889 36278 ft 422 kts 238°
2026-05-05 12:03 -35.39401 149.38032 36276 ft 422 kts 238°
2026-05-05 12:03 -35.42798 149.32168 36283 ft 422 kts 238°
2026-05-05 12:04 -35.46189 149.26307 36276 ft 421 kts 238°
2026-05-05 12:04 -35.49559 149.20488 36278 ft 421 kts 238°
2026-05-05 12:05 -35.52948 149.14622 36282 ft 421 kts 238°
2026-05-05 12:05 -35.56330 149.08749 36288 ft 421 kts 238°
2026-05-05 12:06 -35.59713 149.02876 36292 ft 422 kts 238°
2026-05-05 12:06 -35.63076 148.97032 36297 ft 421 kts 238°
2026-05-05 12:07 -35.66451 148.91139 36301 ft 421 kts 238°
2026-05-05 12:07 -35.69824 148.85243 36301 ft 421 kts 238°
2026-05-05 12:08 -35.73195 148.79344 36301 ft 422 kts 238°
2026-05-05 12:08 -35.76567 148.73430 36300 ft 422 kts 238°
2026-05-05 12:09 -35.79918 148.67549 36305 ft 422 kts 238°
2026-05-05 12:09 -35.83283 148.61629 36304 ft 422 kts 238°
2026-05-05 12:10 -35.86649 148.55703 36301 ft 423 kts 238°
2026-05-05 12:10 -35.90017 148.49745 36300 ft 423 kts 238°
2026-05-05 12:11 -35.93352 148.43822 36297 ft 423 kts 238°
2026-05-05 12:11 -35.96708 148.37854 36297 ft 423 kts 238°
2026-05-05 12:12 -36.00066 148.31880 36300 ft 424 kts 238°
2026-05-05 12:12 -36.03426 148.25888 36296 ft 424 kts 238°
2026-05-05 12:13 -36.06767 148.19932 36286 ft 425 kts 237°
2026-05-05 12:13 -36.10120 148.13919 36288 ft 425 kts 238°
2026-05-05 12:14 -36.13478 148.07899 36288 ft 425 kts 237°
2026-05-05 12:14 -36.16844 148.01884 36288 ft 425 kts 237°
2026-05-05 12:15 -36.20191 147.95901 36291 ft 425 kts 238°
2026-05-05 12:15 -36.23553 147.89872 36290 ft 425 kts 238°
2026-05-05 12:16 -36.26902 147.83835 36298 ft 425 kts 238°
2026-05-05 12:16 -36.30251 147.77786 36288 ft 426 kts 238°
2026-05-05 12:17 -36.33605 147.71730 36285 ft 426 kts 238°
2026-05-05 12:17 -36.36932 147.65710 36285 ft 426 kts 238°
2026-05-05 12:18 -36.40280 147.59637 36285 ft 426 kts 238°
2026-05-05 12:18 -36.43624 147.53566 36285 ft 426 kts 238°
2026-05-05 12:19 -36.46941 147.47518 36282 ft 426 kts 238°
2026-05-05 12:19 -36.50271 147.41419 36282 ft 426 kts 238°
2026-05-05 12:20 -36.53608 147.35312 36280 ft 427 kts 238°
2026-05-05 12:20 -36.56947 147.29213 36282 ft 427 kts 238°
2026-05-05 12:21 -36.60280 147.23098 36283 ft 427 kts 238°
2026-05-05 12:21 -36.63592 147.17019 36283 ft 427 kts 238°
2026-05-05 12:22 -36.66924 147.10895 36289 ft 427 kts 238°
2026-05-05 12:22 -36.70244 147.04761 36281 ft 427 kts 238°
2026-05-05 12:23 -36.73564 146.98622 36280 ft 427 kts 238°
2026-05-05 12:23 -36.76863 146.92517 36280 ft 427 kts 238°
2026-05-05 12:24 -36.80178 146.86368 36296 ft 427 kts 238°
2026-05-05 12:24 -36.83491 146.80217 36282 ft 427 kts 238°
2026-05-05 12:25 -36.86799 146.74056 36288 ft 427 kts 238°
2026-05-05 12:25 -36.90078 146.67935 36285 ft 427 kts 238°
2026-05-05 12:26 -36.93387 146.61766 36297 ft 427 kts 238°
2026-05-05 12:26 -36.96684 146.55599 36287 ft 427 kts 238°
2026-05-05 12:27 -36.99978 146.49421 36287 ft 427 kts 238°
2026-05-05 12:27 -37.03240 146.43287 36284 ft 427 kts 238°
2026-05-05 12:28 -37.06527 146.37099 36295 ft 426 kts 238°
2026-05-05 12:28 -37.09802 146.30915 36278 ft 426 kts 238°
2026-05-05 12:29 -37.13080 146.24736 36287 ft 426 kts 238°
2026-05-05 12:29 -37.16338 146.18590 36284 ft 426 kts 238°
2026-05-05 12:30 -37.19601 146.12393 36285 ft 426 kts 239°
2026-05-05 12:30 -37.22851 146.06196 36282 ft 425 kts 238°
2026-05-05 12:31 -37.26110 145.99997 36282 ft 425 kts 239°
2026-05-05 12:31 -37.29343 145.93836 36282 ft 425 kts 239°
2026-05-05 12:32 -37.32598 145.87632 36279 ft 425 kts 239°
2026-05-05 12:32 -37.35851 145.81425 36283 ft 425 kts 239°
2026-05-05 12:33 -37.37485 145.78305 35923 ft 431 kts 238°
2026-05-05 12:33 -37.39140 145.75146 35188 ft 433 kts 238°
2026-05-05 12:33 -37.40780 145.72017 34509 ft 435 kts 238°
2026-05-05 12:33 -37.42444 145.68834 33748 ft 436 kts 238°
2026-05-05 12:34 -37.44099 145.65628 33141 ft 436 kts 240°
2026-05-05 12:34 -37.45452 145.62213 32652 ft 437 kts 249°
2026-05-05 12:34 -37.46447 145.58593 32203 ft 439 kts 252°
2026-05-05 12:34 -37.47416 145.54937 31612 ft 441 kts 252°
2026-05-05 12:35 -37.48387 145.51291 30804 ft 439 kts 252°
2026-05-05 12:35 -37.49366 145.47627 29945 ft 443 kts 252°
2026-05-05 12:35 -37.50338 145.43977 29001 ft 447 kts 252°
2026-05-05 12:35 -37.51323 145.40254 28078 ft 450 kts 252°
2026-05-05 12:36 -37.52311 145.36505 27207 ft 452 kts 252°
2026-05-05 12:36 -37.53307 145.32741 26341 ft 454 kts 251°
2026-05-05 12:36 -37.54308 145.28959 25505 ft 456 kts 251°
2026-05-05 12:36 -37.55306 145.25172 24669 ft 455 kts 251°
2026-05-05 12:37 -37.56301 145.21400 23781 ft 451 kts 251°
2026-05-05 12:37 -37.57278 145.17673 22764 ft 446 kts 251°
2026-05-05 12:37 -37.58243 145.13984 21760 ft 439 kts 252°
2026-05-05 12:37 -37.59194 145.10355 20795 ft 433 kts 252°
2026-05-05 12:38 -37.60122 145.06826 19881 ft 427 kts 252°
2026-05-05 12:38 -37.61053 145.03290 18981 ft 421 kts 252°
2026-05-05 12:38 -37.61968 144.99808 18019 ft 415 kts 252°
2026-05-05 12:38 -37.62867 144.96368 17036 ft 410 kts 252°
2026-05-05 12:39 -37.63750 144.92975 16078 ft 404 kts 252°
2026-05-05 12:39 -37.64620 144.89625 15149 ft 399 kts 251°
2026-05-05 12:39 -37.65774 144.86474 14241 ft 395 kts 239°
2026-05-05 12:39 -37.67408 144.83762 13263 ft 383 kts 227°
2026-05-05 12:40 -37.69368 144.81628 12304 ft 371 kts 216°
2026-05-05 12:40 -37.71522 144.79921 11361 ft 360 kts 212°
2026-05-05 12:40 -37.73623 144.78286 10583 ft 348 kts 213°
2026-05-05 12:40 -37.75608 144.76737 10295 ft 323 kts 213°
2026-05-05 12:41 -37.77324 144.75395 10186 ft 299 kts 213°
2026-05-05 12:41 -37.79041 144.74050 10051 ft 286 kts 213°
2026-05-05 12:41 -37.80725 144.72729 9916 ft 284 kts 213°
2026-05-05 12:41 -37.82404 144.71409 9664 ft 283 kts 213°
2026-05-05 12:42 -37.84076 144.70096 9088 ft 281 kts 213°
2026-05-05 12:42 -37.85727 144.68802 8454 ft 279 kts 213°
2026-05-05 12:42 -37.87261 144.67598 7803 ft 279 kts 213°
2026-05-05 12:42 -37.88866 144.66336 7141 ft 280 kts 213°
2026-05-05 12:43 -37.90499 144.65055 6529 ft 277 kts 213°
2026-05-05 12:43 -37.92114 144.63790 5915 ft 274 kts 213°
2026-05-05 12:43 -37.93724 144.62528 5308 ft 270 kts 213°
2026-05-05 12:43 -37.95306 144.61283 4826 ft 263 kts 213°
2026-05-05 12:44 -37.96836 144.60075 4516 ft 261 kts 213°
2026-05-05 12:44 -37.98239 144.58969 4235 ft 262 kts 213°
2026-05-05 12:44 -37.99768 144.57764 3923 ft 260 kts 213°
2026-05-05 12:44 -38.01274 144.56577 3630 ft 258 kts 214°
2026-05-05 12:45 -38.02792 144.55378 3321 ft 256 kts 214°
2026-05-05 12:45 -38.04414 144.54479 3058 ft 256 kts 194°
2026-05-05 12:45 -38.06124 144.54160 3003 ft 244 kts 189°
2026-05-05 12:45 -38.07714 144.53970 3007 ft 230 kts 185°
2026-05-05 12:46 -38.09266 144.53967 3007 ft 215 kts 182°
2026-05-05 12:46 -38.10723 144.54010 2894 ft 207 kts 182°
2026-05-05 12:46 -38.12085 144.54008 2687 ft 201 kts 192°
2026-05-05 12:46 -38.13233 144.53473 2569 ft 176 kts 218°
2026-05-05 12:47 -38.14030 144.52454 2505 ft 151 kts 242°
2026-05-05 12:47 -38.14431 144.51300 2499 ft 138 kts 252°
2026-05-05 12:47 -38.14759 144.50180 2514 ft 134 kts 252°
2026-05-05 12:47 -38.15079 144.49081 2512 ft 132 kts 252°
2026-05-05 12:48 -38.15303 144.47962 2509 ft 131 kts 269°
2026-05-05 12:48 -38.15147 144.46822 2332 ft 132 kts 292°
2026-05-05 12:48 -38.14628 144.45887 2130 ft 133 kts 314°
2026-05-05 12:48 -38.13828 144.45307 1858 ft 134 kts 339°
2026-05-05 12:49 -38.12894 144.45215 1590 ft 137 kts
2026-05-05 12:49 -38.11950 144.45379 1327 ft 137 kts
2026-05-05 12:49 -38.11013 144.45538 1148 ft 137 kts
2026-05-05 12:49 -38.10068 144.45698 970 ft 137 kts
2026-05-05 12:50 -38.09128 144.45858 796 ft 136 kts
2026-05-05 12:50 -38.08192 144.46020 620 ft 136 kts
2026-05-05 12:50 -38.07257 144.46178 422 ft 135 kts
2026-05-05 12:50 -38.06343 144.46329 230 ft 133 kts
2026-05-05 12:51 -38.05425 144.46482 86 ft 133 kts
2026-05-05 12:51 -38.04573 144.46624 36 ft 105 kts
2026-05-05 12:51 -38.04007 144.46723 36 ft 64 kts
2026-05-05 12:51 -38.03641 144.46786 36 ft 44 kts
2026-05-05 12:52 -38.03371 144.46832 36 ft 37 kts
2026-05-05 12:52 -38.03116 144.46875 36 ft 36 kts
2026-05-05 12:52 -38.02868 144.46917 33 ft 31 kts
2026-05-05 12:52 -38.02741 144.46960 31 ft 14 kts 57°
2026-05-05 12:53 -38.02742 144.47081 35 ft 12 kts 101°
2026-05-05 12:53 -38.02776 144.47162 34 ft 11 kts 121°
2026-05-05 12:53 -38.02793 144.47262 36 ft 13 kts 98°
2026-05-05 12:53 -38.02758 144.47309 35 ft 8 kts 10°
2026-05-05 12:54 -38.02729 144.47314 36 ft 0 kts